Wind_Speed
38 38 38 38 39 40 41 42 43 44 45 45 46 46 47 47 48 48 49 49 50 51 51 52 53 53 54 55 56 57 58 59 60 62 63 64 66 67 68 70 71 72 73 74 75 75 75 75 76 75 75 75 74 74 74 74 75 75 76 77 78 80 83 84 85 83 78 78 82 83 85 87 87 88 90 91 91 91 90 90 90 90 91 91 91
40 40 40 41 41 43 44 44 45 45 46 47 47 48 48 49 49 50 50 51 51 52 53 54 54 55 56 57 58 59 60 62 63 64 66 67 68 69 70 71 72 73 75 75 75 75 75 75 75 75 74 74 73 73 73 73 74 75 76 79 80 82 85 87 89 89 87 83 84 85 87 90 90 90 92 93 92 91 90 90 91 92 93 94 94
41 42 42 43 44 45 46 46 46 47 47 48 49 49 50 50 51 51 51 52 53 54 55 55 56 57 58 59 60 62 63 64 65 67 68 69 70 71 72 73 74 75 75 75 75 75 75 75 75 74 74 73 72 73 73 74 75 77 78 81 83 84 88 91 92 93 93 90 88 88 89 91 92 92 93 94 94 93 93 93 94 95 95 96 97
43 44 45 45 46 47 47 47 47 48 49 50 50 51 51 51 52 52 53 54 54 55 56 57 58 59 60 62 63 64 65 66 67 68 69 70 72 73 74 74 75 75 75 75 75 75 75 75 74 74 73 73 72 73 74 76 77 79 81 83 86 88 90 93 95 96 97 96 93 92 92 93 93 93 94 96 97 98 98 98 98 98 97 97 98
45 46 46 47 47 47 47 48 49 50 50 51 52 52 52 52 53 54 54 55 56 57 58 59 60 61 63 64 65 66 67 68 69 70 71 72 73 74 74 75 75 75 75 75 75 76 75 75 74 74 73 73 73 75 76 78 80 82 84 87 89 91 93 95 97 99 100 100 98 95 95 95 95 95 97 99 101 101 101 101 101 100 100 99 98
46 47 47 48 48 48 49 50 51 52 52 53 53 53 53 54 55 56 57 57 58 59 60 62 63 64 65 66 67 68 69 70 71 72 73 74 74 74 75 75 75 75 75 76 76 76 75 74 73 73 73 74 76 77 79 81 83 85 88 90 92 94 96 97 99 100 101 101 101 99 98 98 99 99 100 102 104 105 105 105 104 103 102 102 101
48 48 48 48 49 50 51 52 52 53 53 53 54 54 55 56 57 58 59 60 61 62 63 64 65 66 67 68 69 70 71 72 72 73 74 74 74 74 75 75 75 76 76 76 75 74 73 73 73 74 76 77 79 81 83 85 87 89 91 94 95 97 98 99 100 101 102 103 103 103 103 103 104 104 104 105 107 108 109 109 109 107 105 104 103
49 49 49 50 51 52 53 53 53 54 54 55 55 56 57 59 60 61 62 63 63 64 65 66 67 68 69 69 71 72 73 73 74 74 74 74 74 75 75 75 76 75 75 74 73 73 72 73 75 77 79 81 83 85 87 89 91 92 94 96 98 98 99 100 101 102 104 105 106 106 107 108 108 109 109 109 110 111 111 112 113 111 109 107 104
51 51 52 53 53 54 54 54 54 55 56 56 57 59 60 61 62 63 64 64 65 66 67 68 69 70 70 71 72 73 74 74 74 74 74 75 75 75 75 75 75 74 73 72 72 72 74 75 78 80 82 84 86 89 91 93 94 95 95 97 98 99 100 101 103 105 106 108 109 110 111 112 112 112 112 112 113 113 114 114 114 113 112 110 106
53 53 54 54 55 55 55 55 56 57 58 59 60 61 62 63 64 64 65 66 67 68 69 70 71 71 72 73 74 74 75 75 75 75 75 76 75 75 75 75 74 73 72 72 73 74 76 78 81 83 85 87 89 91 93 94 95 96 96 97 99 100 102 103 105 107 109 111 112 113 115 116 115 115 115 115 115 115 115 115 115 115 113 112 108
54 55 55 55 55 56 56 57 58 59 60 62 62 63 63 64 65 66 67 68 69 70 71 72 73 73 74 74 75 75 75 75 76 76 76 76 76 75 74 74 73 73 73 73 75 76 78 81 84 86 88 90 92 93 93 94 94 95 97 98 100 102 104 106 108 110 112 113 115 116 117 117 117 117 117 117 117 117 117 116 116 115 114 112 109
55 56 56 56 56 57 58 59 60 61 62 63 63 63 64 65 66 68 69 70 71 72 73 73 74 74 74 75 75 75 75 76 76 76 76 76 75 74 74 73 73 73 74 76 78 80 82 84 86 89 91 92 93 93 93 94 95 96 98 99 101 103 106 108 110 112 114 116 117 117 117 118 118 118 117 118 118 118 117 116 116 114 112 111 108
56 57 57 57 58 59 60 61 62 62 63 63 64 65 66 67 69 70 71 72 73 73 74 74 74 74 75 75 76 76 76 76 76 76 76 75 74 74 73 73 74 75 77 79 81 84 86 87 89 90 92 93 93 94 94 95 96 98 100 101 103 105 107 108 111 113 115 116 117 118 118 118 119 119 118 119 119 118 117 116 115 114 112 111 108
57 58 58 59 60 61 62 62 63 63 63 64 66 67 68 70 71 72 72 73 73 73 73 73 74 74 75 75 76 76 76 76 76 76 75 74 73 73 73 74 76 78 80 83 85 87 89 90 90 91 91 93 94 96 97 98 99 100 102 103 105 106 107 109 111 113 115 117 118 119 119 120 120 120 118 118 117 117 117 116 116 114 112 110 107
59 60 60 61 62 62 63 63 64 65 66 67 68 69 70 71 72 72 73 73 73 73 73 73 74 75 75 76 76 76 76 76 76 75 74 73 73 74 75 76 78 81 83 85 87 89 90 90 91 91 92 93 96 98 100 101 102 103 104 105 106 107 108 109 111 113 114 116 118 119 119 119 118 117 116 116 116 117 117 116 115 112 109 107 102
61 61 62 62 63 63 64 65 66 67 68 69 70 71 71 72 72 72 72 72 72 72 73 74 74 75 75 75 76 76 76 75 74 73 73 74 75 76 77 79 81 83 85 87 88 89 90 90 91 92 93 95 96 99 101 103 104 105 106 107 107 108 109 109 111 112 113 115 116 117 117 115 115 114 114 115 115 114 113 111 108 104 101 98 93
62 62 63 64 65 66 67 68 68 69 70 70 71 71 71 71 71 71 71 71 72 72 73 74 74 75 75 75 75 75 74 73 73 73 75 76 77 78 80 82 84 85 86 87 88 89 90 91 93 94 94 96 97 99 102 103 105 107 108 109 110 110 111 111 112 112 113 114 114 113 112 111 112 112 112 111 109 106 104 101 97 93 90 86 81
63 64 65 66 67 68 68 69 69 70 70 70 71 70 70 70 70 70 71 71 72 73 73 74 74 74 74 73 73 73 73 73 74 76 77 78 80 81 83 84 85 85 86 86 87 89 90 92 94 95 96 97 98 100 102 104 106 108 110 111 112 113 113 114 114 113 112 110 108 108 108 109 110 109 107 104 99 95 92 89 86 84 81 76 72
65 66 67 68 69 69 69 69 69 69 69 69 69 69 69 70 70 70 71 71 72 73 73 74 73 73 72 72 72 72 74 75 77 78 80 81 83 84 85 85 85 85 86 86 87 89 91 92 94 95 96 97 99 101 103 105 107 109 111 113 114 115 115 115 115 113 110 108 106 106 107 107 106 103 99 95 90 86 84 82 79 76 73 68 63
67 68 69 69 69 69 68 68 68 68 68 68 69 69 69 69 70 71 71 72 72 72 72 72 71 71 71 72 73 75 76 78 79 81 82 83 84 85 85 85 85 85 86 88 89 90 91 92 94 95 97 98 100 102 104 106 108 110 111 113 115 115 116 115 113 111 109 108 107 107 105 102 99 94 90 86 82 80 78 76 72 69 66 61 56
68 68 68 67 67 67 67 67 67 67 67 68 68 69 69 70 71 71 71 71 71 70 70 70 70 71 73 74 76 77 78 80 81 82 83 84 85 85 85 86 86 87 88 89 90 91 92 92 94 96 98 99 101 103 104 106 108 109 111 113 114 114 114 112 110 109 109 108 107 105 100 95 90 85 81 78 77 75 72 68 64 61 57 53 49
66 66 65 65 65 65 65 65 66 67 68 68 69 69 70 70 70 70 70 69 68 68 69 70 71 73 75 76 78 79 80 81 82 82 83 84 84 85 85 86 87 88 89 90 91 92 93 94 95 97 98 100 101 103 104 105 107 108 109 110 111 110 109 108 107 108 108 106 103 98 92 86 82 78 75 73 71 68 64 60 56 52 49 45 42
63 63 63 63 64 64 65 66 66 67 68 68 69 69 69 69 69 68 67 67 67 68 69 71 73 75 77 78 79 80 81 81 82 82 83 84 84 85 86 87 88 89 90 91 92 93 94 95 96 98 99 101 102 103 104 105 105 106 106 107 106 105 105 105 105 106 104 101 96 90 84 79 76 73 71 68 65 61 57 52 48 45 42 38 35
62 63 63 63 64 65 65 66 67 67 68 68 68 68 67 67 66 66 66 67 69 70 71 72 74 76 77 78 79 79 80 81 82 82 83 84 85 86 87 88 88 89 90 92 93 94 95 96 98 99 100 101 102 102 102 102 103 103 103 103 102 102 102 103 103 101 98 93 88 82 76 73 71 69 66 62 58 54 50 46 42 40 37 33 29
63 63 64 64 65 65 65 66 66 66 67 66 66 66 65 65 66 66 68 69 70 71 72 74 76 77 77 77 77 78 79 81 82 83 84 85 86 86 87 88 89 90 92 93 94 95 96 98 99 99 100 100 100 100 100 100 100 100 100 99 99 100 100 100 98 94 90 85 79 75 71 68 66 64 60 56 52 49 45 41 39 36 31 26 22
63 63 63 64 64 64 64 65 65 65 65 65 65 65 65 66 67 68 69 70 71 73 75 76 77 77 76 76 77 78 79 81 82 83 85 85 86 86 87 89 90 91 92 93 94 95 96 97 98 98 99 99 99 99 98 97 96 96 96 96 97 97 97 95 91 87 82 77 72 69 66 64 60 56 53 51 48 44 41 37 34 31 26 20 15
62 62 62 62 62 63 63 64 64 64 64 64 65 66 66 67 68 69 70 72 74 75 76 76 76 76 75 76 77 79 80 81 83 84 85 85 86 87 88 90 91 92 93 93 94 94 95 95 96 97 97 97 96 95 94 93 92 92 93 93 94 94 92 88 84 80 76 72 67 64 61 56 52 48 47 46 44 40 36 32 28 25 21 17 11
60 61 61 62 62 62 62 63 63 63 64 65 66 67 67 68 69 70 73 74 76 76 76 76 76 75 75 76 78 80 81 83 84 84 85 85 86 87 89 90 92 93 94 94 94 94 94 95 95 95 94 93 91 90 89 88 88 89 91 91 90 89 86 81 76 73 69 65 62 59 53 47 43 42 42 43 41 35 30 28 25 20 16 11 9
61 61 61 61 61 61 62 62 63 64 65 66 66 67 68 70 72 73 75 75 76 76 76 76 76 76 76 78 79 81 82 83 84 84 85 87 88 89 90 92 93 94 94 95 94 94 94 94 93 91 90 89 88 86 85 85 85 87 87 87 86 83 80 75 71 66 62 59 57 53 46 40 38 38 39 38 35 28 24 24 22 17 11 7 8
61 60 60 60 61 61 62 63 64 65 65 66 68 69 71 73 74 74 75 75 76 76 77 77 77 77 78 79 81 82 82 83 84 85 87 88 89 91 92 92 93 93 93 92 93 92 92 91 90 88 87 85 84 83 83 84 85 85 84 83 81 78 74 70 66 60 55 53 51 47 41 37 35 37 37 34 29 24 21 20 19 15 10 9 9
59 59 60 60 61 62 63 63 64 66 67 68 70 72 73 73 73 74 74 75 76 77 78 78 78 78 79 80 81 82 83 84 85 86 88 89 90 91 92 92 92 91 90 89 89 88 88 87 86 84 81 79 79 80 82 83 84 84 83 81 77 72 68 65 60 54 49 47 44 41 39 35 34 37 38 32 26 24 22 19 17 14 11 9 8
59 60 61 61 62 63 64 65 66 68 69 70 71 72 72 73 73 74 75 76 77 78 79 79 78 79 80 81 82 83 84 85 86 87 88 89 90 90 90 90 89 88 87 86 84 83 83 82 81 78 76 75 76 78 80 82 82 82 82 78 73 68 65 61 54 48 44 41 38 36 36 34 33 38 39 32 25 24 22 19 16 13 9 7 6
60 61 62 63 64 65 66 67 68 69 70 70 71 72 72 73 74 75 76 78 79 80 80 79 78 79 80 82 83 84 85 86 87 88 88 89 88 88 87 86 85 84 82 81 80 79 78 77 76 74 73 73 74 77 79 79 80 80 79 75 69 65 62 57 49 43 40 37 34 34 35 33 33 36 35 28 23 21 18 16 13 9 6 4 3
62 63 64 64 65 66 67 67 68 69 69 70 71 72 73 74 75 76 77 79 80 80 79 78 79 80 82 83 84 85 86 87 88 88 87 87 86 84 83 81 80 78 77 76 75 75 74 73 73 72 71 71 74 76 77 77 78 78 76 71 66 63 59 51 44 38 35 33 33 34 34 33 33 32 28 22 18 15 14 13 10 6 4 4 6
63 64 65 66 66 67 67 68 68 69 70 71 72 73 74 75 76 77 78 79 80 80 79 79 80 81 83 84 85 86 87 87 87 86 86 84 83 81 79 77 75 73 72 71 71 71 71 72 71 70 69 71 74 76 76 75 77 77 73 66 62 60 55 47 39 35 32 32 33 34 34 33 32 28 24 20 16 13 10 9 6 3 1 4 6
65 66 66 67 67 68 68 69 70 70 71 72 73 74 75 76 76 77 79 80 80 80 80 80 81 83 84 85 86 87 87 86 85 84 83 82 79 77 75 73 71 69 68 69 69 69 71 71 69 68 68 70 73 74 74 75 76 75 70 63 60 57 51 43 35 32 31 32 33 33 33 32 31 28 25 20 15 10 7 5 4 2 1 2 3
67 67 67 68 68 69 69 70 71 72 73 74 75 75 76 76 77 78 79 80 81 81 81 81 83 84 85 86 86 86 86 85 83 82 80 78 76 74 72 70 67 66 66 67 68 69 70 70 68 67 68 70 72 73 73 74 75 73 66 60 57 54 48 39 31 29 30 32 32 32 31 31 29 26 21 16 11 8 6 6 6 5 4 3 2
68 68 68 69 69 70 70 71 72 73 74 75 75 76 76 77 78 79 80 81 81 82 83 84 85 86 86 86 86 85 83 82 80 79 77 74 72 70 67 65 63 64 66 67 67 68 69 68 66 66 68 70 72 72 72 73 74 70 62 56 54 51 45 36 29 28 30 31 31 30 29 29 27 23 17 12 9 9 9 9 9 8 8 7 7
69 69 70 70 71 71 72 73 74 75 75 76 76 76 77 78 79 80 81 82 83 84 85 86 86 86 86 85 85 83 81 79 77 74 72 70 68 65 63 62 63 64 66 66 67 68 68 66 65 66 69 70 71 71 72 73 72 66 58 53 50 47 41 34 29 29 30 30 29 28 27 26 24 20 14 11 10 10 11 12 12 12 12 12 11
71 72 72 73 73 74 75 75 76 76 76 77 77 78 78 79 80 82 83 84 85 86 86 86 85 85 85 84 83 81 78 76 73 70 68 66 64 62 61 61 63 64 65 65 66 67 67 65 65 67 68 69 70 71 71 73 70 62 54 50 47 44 38 33 30 29 28 27 27 26 24 22 19 16 12 10 10 11 12 13 14 14 14 13 13
74 74 74 75 76 76 76 77 77 77 78 78 78 79 79 81 82 84 85 86 86 86 86 85 85 85 84 83 81 78 75 72 69 67 65 63 62 61 61 62 63 64 64 64 66 66 65 65 66 67 68 69 69 70 71 71 67 58 50 47 45 41 36 33 31 29 27 25 25 24 22 18 15 13 11 10 10 12 12 13 13 12 11 10 9
75 76 76 77 77 77 77 78 78 78 78 79 79 80 81 82 84 85 86 87 87 86 86 85 85 84 83 80 77 74 71 68 65 63 62 61 60 60 61 62 64 64 64 65 65 65 64 65 66 68 68 68 68 68 69 69 63 54 47 44 41 38 34 32 31 29 26 24 24 24 21 18 14 12 10 10 11 12 12 12 11 9 8 7 6
77 77 77 77 77 77 78 78 78 79 79 80 81 82 83 84 85 86 86 87 87 87 87 86 84 82 80 77 73 70 67 64 61 60 60 59 60 61 62 63 65 65 65 65 65 64 64 65 67 68 68 68 68 67 68 66 58 49 43 41 38 35 32 31 31 28 25 23 23 23 22 20 16 13 11 11 11 12 12 11 10 9 8 7 7
77 77 77 77 77 78 78 79 79 80 81 82 84 84 85 85 86 87 88 88 88 87 86 83 80 78 75 72 69 65 62 60 59 59 59 59 60 61 63 64 65 65 65 65 65 64 64 65 67 67 68 68 68 67 67 63 55 45 40 39 37 32 30 30 30 28 25 23 23 23 22 21 18 16 15 13 12 12 11 11 10 10 10 10 10
78 78 78 78 78 79 79 80 81 82 83 84 85 86 87 87 87 88 88 88 87 85 82 78 75 73 70 67 64 61 59 58 58 58 59 59 61 62 64 65 65 65 64 64 64 65 65 66 67 67 67 67 67 67 66 61 52 43 39 37 35 31 28 28 30 28 25 23 23 23 22 21 20 19 18 16 14 13 13 13 12 12 13 13 13
78 79 79 80 80 81 82 83 84 85 85 86 87 88 88 88 88 87 87 86 84 82 78 74 71 68 66 63 60 59 58 58 58 58 58 59 61 63 64 65 65 64 64 64 64 65 65 66 66 66 66 66 67 66 64 59 50 42 38 36 34 31 28 28 29 29 26 23 23 24 23 22 21 20 19 18 17 16 15 15 15 15 14 14 14
80 80 81 82 83 84 84 85 86 87 88 88 89 89 89 88 87 86 85 83 81 78 74 69 66 64 61 59 58 58 58 58 58 58 59 60 61 63 65 65 65 64 64 64 64 65 65 66 66 65 66 66 66 65 62 56 48 41 37 36 34 31 28 27 29 29 28 25 24 24 25 24 23 22 21 20 19 19 18 18 17 16 16 15 15
81 82 83 84 85 86 86 87 88 88 88 89 89 89 88 86 85 83 82 79 76 72 68 64 62 60 59 58 58 59 59 59 59 59 59 59 61 63 64 65 64 64 64 64 64 65 65 65 65 65 66 66 65 63 60 54 47 41 38 36 34 31 29 28 29 30 30 27 25 25 25 25 25 24 23 22 22 21 20 20 19 18 17 17 17
83 84 84 85 86 87 87 87 88 88 88 88 87 86 84 82 80 79 77 74 70 67 64 61 59 57 57 58 60 61 61 61 60 59 59 59 61 63 64 64 64 64 64 64 64 64 65 65 65 65 65 65 64 61 57 52 47 42 38 36 34 32 30 29 30 31 32 30 28 26 25 25 25 25 25 24 23 23 22 21 20 20 20 20 20
85 86 86 87 87 87 87 87 87 87 86 85 84 83 81 79 76 74 71 68 65 62 59 57 56 57 59 62 64 64 62 61 60 59 59 60 62 63 63 63 63 63 64 64 64 64 64 64 65 65 65 64 62 59 54 50 45 42 39 37 35 33 31 30 31 31 32 32 30 28 27 26 26 26 26 25 25 24 23 22 22 22 22 22 22
87 87 87 87 87 87 87 86 85 85 84 83 81 80 78 75 72 69 66 64 61 59 57 57 59 63 66 67 67 65 63 61 59 59 60 61 62 62 62 62 63 63 63 64 64 64 64 64 65 65 65 64 61 57 52 48 44 42 39 37 35 34 33 32 32 32 33 32 32 31 30 28 27 27 27 27 26 26 25 24 24 24 24 25 25
Wind_Direction
268 269 270 272 274 275 276 277 277 278 279 280 282 283 284 285 285 286 286 286 286 286 287 287 287 287 288 289 290 291 292 293 294 294 295 296 297 298 298 299 299 299 299 299 300 300 300 301 301 301 301 301 300 299 299 299 299 299 299 299 299 300 300 301 301 301 302 302 302 302 302 301 301 301 299 299 298 297 297 297 296 296 296 295 295
268 269 271 273 274 275 276 277 277 279 280 281 283 284 284 285 285 285 285 286 286 286 287 287 287 288 289 290 290 291 292 293 294 295 296 297 297 298 298 298 298 299 299 299 300 300 300 300 300 300 300 300 299 299 299 299 299 299 299 300 300 301 302 302 302 302 302 303 303 303 302 301 301 300 299 298 298 297 296 296 296 296 296 296 295
268 270 272 273 275 275 276 277 278 280 281 282 283 283 284 284 284 285 285 285 286 286 286 287 287 288 289 290 291 292 293 294 295 296 297 297 297 298 298 298 298 299 299 299 299 300 300 300 300 300 299 299 298 298 299 299 299 300 301 301 302 302 303 303 302 302 303 304 304 303 302 301 301 301 300 299 298 298 297 297 297 296 296 296 296
269 271 272 274 275 275 276 277 279 280 281 282 282 282 283 283 284 284 284 285 285 285 286 287 287 288 290 291 292 293 294 295 295 296 296 297 297 298 298 298 298 298 299 299 299 299 300 300 299 299 298 298 298 299 299 300 301 301 302 302 303 303 303 303 303 303 303 304 304 303 303 302 301 301 300 299 299 298 298 298 297 297 297 297 296
270 272 273 273 274 275 276 278 279 280 280 280 281 281 282 282 283 284 284 284 285 286 287 288 289 290 292 293 293 294 294 295 296 296 297 297 297 297 298 298 298 298 299 299 299 300 300 299 299 298 298 299 299 300 301 301 302 303 303 303 303 303 304 304 303 303 303 304 304 304 303 302 302 302 301 300 299 299 299 298 298 298 298 298 297
270 271 272 273 274 275 277 278 278 279 279 280 280 281 282 282 283 283 284 285 286 287 289 290 291 292 293 293 294 294 295 295 296 296 297 297 297 297 297 297 298 298 299 299 300 300 300 299 299 299 300 300 301 301 302 302 303 303 304 304 304 304 304 304 304 303 303 303 304 304 304 303 303 303 302 301 301 301 300 300 299 299 299 298 298
270 271 272 273 275 276 276 277 277 278 279 280 281 281 282 283 283 284 285 287 288 290 291 292 292 293 293 294 294 294 295 295 295 296 296 296 296 297 297 297 298 299 299 300 300 300 300 300 301 301 302 302 302 303 303 303 304 304 305 304 304 304 304 304 304 304 303 303 304 304 304 304 304 304 304 303 302 302 302 301 301 300 299 298 298
270 271 273 274 275 276 276 276 277 278 279 280 281 282 282 283 284 285 287 289 290 291 292 292 293 293 293 294 294 294 294 294 295 295 295 296 296 297 297 298 299 299 300 300 301 301 302 302 303 303 303 303 304 304 304 304 305 305 305 305 304 304 304 304 304 304 303 303 304 304 305 305 306 305 305 304 303 302 302 301 301 300 299 298 298
271 272 273 274 275 275 276 277 277 278 279 280 281 282 283 284 286 288 289 290 291 292 292 293 293 293 293 293 293 293 294 294 295 295 295 296 297 297 298 299 300 300 301 301 302 302 303 303 304 304 304 304 305 305 305 305 305 305 305 305 305 305 304 304 304 304 304 304 305 306 306 306 306 305 304 304 303 302 302 301 300 300 299 298 298
271 272 273 274 275 275 276 277 278 279 280 281 282 283 285 287 288 289 290 291 292 292 293 293 293 292 292 292 292 293 294 295 295 295 296 297 297 298 299 300 301 301 301 302 302 303 304 304 304 304 304 305 305 305 305 305 305 305 305 305 305 305 305 305 305 305 305 305 306 306 306 306 306 306 305 305 304 303 302 301 300 299 299 298 297
271 272 273 274 275 275 277 278 279 280 281 282 284 285 287 289 290 290 291 292 292 292 292 292 292 292 292 292 293 294 295 295 296 296 297 298 298 299 300 301 301 302 302 303 303 304 304 304 304 304 304 305 305 305 305 305 305 305 305 305 305 306 306 306 306 306 306 307 307 307 307 307 307 306 306 305 304 303 302 301 300 299 299 298 297
272 272 273 274 275 277 278 279 280 281 283 284 286 287 289 289 290 291 291 292 292 292 292 292 292 292 293 293 294 295 295 296 297 297 298 299 300 300 301 301 302 303 303 304 304 304 304 304 304 304 304 304 304 304 304 304 304 305 305 305 306 306 307 307 308 308 308 307 307 307 307 307 307 306 306 305 304 303 302 301 300 299 299 298 298
272 273 274 275 276 278 279 280 281 283 285 286 287 288 289 290 290 291 291 291 291 291 291 292 292 292 293 294 295 295 296 297 297 298 299 300 300 301 301 302 303 304 305 305 305 304 304 304 304 304 304 304 304 304 304 304 304 305 306 306 307 307 307 307 307 307 307 307 307 308 308 307 307 307 307 306 304 303 302 301 301 300 299 298 298
273 274 275 277 278 279 280 282 283 285 286 287 288 288 289 290 290 290 290 290 290 291 291 291 292 293 293 294 295 296 296 297 298 298 299 300 300 301 303 304 305 305 305 305 305 304 304 304 304 304 304 304 304 304 304 305 305 306 306 306 307 307 307 307 307 307 308 308 308 308 309 309 308 308 307 306 305 304 303 302 301 300 299 298 297
274 275 277 278 279 280 282 283 284 285 286 287 287 288 289 289 289 290 289 289 290 290 291 291 292 293 293 294 295 295 296 297 298 299 299 300 302 303 304 305 305 305 305 305 304 304 304 304 304 304 304 304 305 305 305 306 306 307 306 306 306 307 307 307 308 308 308 309 309 309 309 309 308 307 307 306 305 304 303 302 301 300 300 299 298
275 276 277 279 280 281 282 283 284 285 286 286 287 287 288 288 288 288 288 289 289 290 291 291 292 292 293 294 295 296 297 297 298 299 301 302 304 304 305 305 305 304 304 304 304 304 304 304 304 305 305 306 306 306 306 307 307 307 307 307 307 307 308 308 308 308 309 309 309 309 309 309 308 308 307 306 305 304 303 302 302 302 301 301 301
276 277 278 280 280 281 282 283 284 285 285 286 286 286 287 287 287 287 288 289 289 290 290 291 292 292 293 295 296 297 298 299 300 302 303 303 304 304 304 304 304 303 303 303 304 304 304 305 305 306 306 306 306 307 307 307 307 307 307 307 308 308 308 308 308 309 309 309 309 309 309 309 309 308 307 305 304 304 304 304 304 304 303 303 302
277 278 279 280 281 281 282 283 283 284 284 285 285 285 286 286 287 287 288 288 289 290 290 291 292 293 295 296 296 298 299 301 302 303 303 303 303 303 303 303 302 303 303 303 304 304 305 306 306 306 306 307 307 307 307 307 307 308 308 308 309 309 309 310 310 310 310 310 310 310 310 310 309 307 306 305 305 306 306 306 306 305 305 305 304
278 278 279 280 280 281 282 282 282 283 283 284 284 285 285 286 287 287 288 288 289 290 291 292 293 295 295 297 298 300 301 302 302 302 302 302 302 302 302 302 302 303 303 304 304 305 305 306 306 306 307 307 307 307 307 308 308 309 309 309 310 310 311 311 311 311 311 311 311 311 311 310 309 307 307 307 308 307 307 307 307 306 306 306 305
278 279 279 280 280 280 281 281 282 282 283 283 284 284 285 286 286 287 288 289 290 291 292 294 295 296 297 298 300 301 301 301 301 301 301 301 301 302 302 302 303 303 304 304 304 305 305 306 306 306 307 307 307 308 308 309 309 309 310 310 311 312 312 312 313 313 313 314 314 314 313 311 310 309 310 310 309 309 308 308 308 307 307 306 305
278 278 279 279 279 280 280 281 281 282 282 283 283 284 285 286 286 287 288 289 291 292 293 295 296 298 299 299 300 300 300 300 301 301 301 301 301 302 302 303 303 304 304 304 305 305 305 306 306 306 307 307 308 308 309 309 310 310 311 312 312 313 313 314 315 315 316 316 316 315 314 313 312 312 312 311 310 309 309 309 308 308 307 306 304
277 278 278 278 279 280 280 280 280 281 282 282 283 284 285 286 287 288 289 290 292 293 294 296 297 298 299 299 299 299 300 300 300 300 301 301 302 302 303 303 304 304 304 305 305 306 306 306 306 307 307 307 308 309 309 310 311 311 312 313 313 314 315 316 316 317 317 317 316 316 315 315 315 314 313 312 311 311 310 310 309 307 306 304 303
277 277 278 278 279 279 280 280 281 281 282 283 284 285 286 288 288 289 290 291 292 294 295 296 297 297 298 298 299 299 299 299 300 300 301 301 302 302 303 304 304 304 305 305 306 306 306 307 307 307 307 308 309 310 311 311 312 313 313 314 314 315 316 317 318 318 318 317 317 317 317 317 316 315 315 314 314 313 311 310 308 305 303 302 301
277 278 278 279 279 280 280 281 282 283 284 285 286 287 287 288 288 289 290 291 292 294 295 295 296 297 297 298 298 299 299 299 300 300 301 301 302 303 303 304 304 305 305 306 306 306 307 307 307 307 308 309 310 311 312 313 313 314 314 315 316 317 318 319 319 319 318 318 318 318 318 318 318 317 317 316 315 314 311 309 306 304 302 301 299
278 278 279 279 280 281 282 282 283 284 285 286 286 286 286 287 287 289 290 291 292 293 294 295 295 296 296 297 298 298 298 299 299 300 301 302 302 303 304 304 304 305 305 306 306 307 307 307 307 308 309 310 311 312 313 313 314 315 316 317 318 319 320 320 320 319 318 318 319 319 319 319 319 318 318 317 315 314 311 308 305 304 302 300 298
278 279 279 280 281 281 282 283 283 284 284 285 285 285 285 286 288 289 290 291 292 293 294 295 295 295 296 297 297 297 298 298 299 300 301 302 302 303 303 304 304 304 305 306 306 307 307 308 309 310 311 312 313 314 314 315 316 317 318 319 320 321 321 321 320 319 319 319 320 320 320 320 320 320 320 318 316 314 312 309 308 306 300 292 293
279 279 280 281 281 282 282 282 283 283 283 283 284 285 286 287 288 289 290 291 292 293 294 294 295 296 296 297 297 297 298 298 299 300 301 301 302 303 303 303 304 304 305 305 306 307 308 309 310 311 312 313 315 315 316 317 318 319 320 321 322 322 322 322 321 320 320 320 321 321 322 323 324 324 322 320 318 315 312 310 311 312 301 286 284
279 280 280 281 281 281 281 282 282 282 283 284 285 286 287 287 288 289 290 292 293 293 294 295 296 296 296 297 297 298 298 298 299 300 300 301 302 302 302 302 303 304 305 306 306 307 308 309 310 312 313 314 315 315 317 318 320 321 322 323 323 323 323 322 321 320 320 320 320 322 324 325 327 327 324 321 318 317 316 313 313 314 304 286 286
279 280 280 280 280 281 281 281 282 283 284 285 285 286 287 287 289 290 291 292 293 293 294 295 296 296 296 297 297 297 297 298 299 300 300 301 301 301 302 302 303 304 305 306 307 308 309 310 311 312 313 314 315 316 318 319 320 322 323 323 324 324 323 322 321 320 320 320 321 323 324 325 327 331 330 325 321 322 325 324 321 318 306 287 293
279 279 279 280 280 280 281 282 283 284 284 285 285 286 287 288 290 291 292 292 293 294 295 295 296 296 296 296 297 297 297 298 299 300 301 301 301 302 302 303 304 305 306 307 308 309 310 311 312 314 315 316 318 319 320 321 322 323 324 325 325 324 323 322 321 321 320 320 321 322 322 321 327 335 336 332 328 330 332 331 330 328 319 306 301
278 279 279 280 280 281 282 283 283 284 284 285 286 287 288 289 290 291 291 292 293 294 294 295 295 296 296 296 297 297 298 299 300 300 301 301 302 303 304 305 306 307 308 309 310 310 311 312 314 316 318 319 320 321 323 324 324 325 326 326 326 325 324 323 322 320 320 321 322 323 322 321 326 334 336 333 330 332 334 335 336 335 328 318 307
278 279 279 280 281 282 283 283 284 284 285 286 287 288 289 290 290 291 291 292 293 293 294 294 295 296 296 296 297 298 298 299 299 300 300 301 303 304 305 306 307 308 309 310 311 311 313 314 316 318 320 321 322 323 324 325 325 326 327 327 326 326 325 323 322 320 321 322 324 326 326 325 327 331 333 331 328 331 335 335 333 332 328 322 317
279 280 281 281 282 283 283 284 285 286 286 287 288 288 289 289 290 290 291 291 292 292 293 294 295 296 296 296 297 297 298 298 299 300 301 302 304 305 306 307 308 309 310 311 312 313 315 318 319 320 321 322 324 325 326 326 326 328 328 327 326 326 325 324 322 321 321 323 325 327 328 328 327 329 331 331 330 332 337 340 341 346 356 5 24
280 281 282 283 283 284 285 285 286 286 287 287 287 288 288 289 289 290 290 291 291 292 293 295 295 296 296 296 297 297 298 299 300 301 303 304 305 306 307 308 309 310 311 311 312 315 317 319 320 321 322 323 325 326 326 326 327 329 328 327 326 326 326 323 320 320 321 323 324 325 326 327 327 326 328 329 330 337 350 359 2 8 34 76 98
283 283 284 284 285 285 285 286 286 286 286 287 287 287 288 288 289 289 290 290 291 292 294 295 295 295 296 296 297 298 299 300 302 303 304 305 305 306 308 309 310 310 310 311 314 316 318 320 321 321 323 324 325 326 326 327 329 330 328 326 325 325 325 322 319 318 320 321 322 322 324 326 326 323 320 322 331 345 360 4 359 355 83 111 113
284 284 285 285 285 285 285 285 285 286 286 286 287 287 287 288 288 289 290 290 292 293 294 295 295 295 295 297 298 299 301 302 303 304 304 305 306 307 308 309 309 309 310 312 315 317 319 321 321 322 324 325 326 326 327 328 330 330 327 325 324 325 324 321 317 316 317 318 318 320 322 324 324 321 317 318 327 339 343 331 310 280 216 152 132
284 284 284 284 284 284 284 285 285 285 285 286 286 287 287 288 288 289 289 291 292 293 294 294 294 295 296 298 299 301 302 302 303 304 305 305 306 307 308 309 309 310 312 313 315 318 320 321 321 322 324 325 326 327 327 329 330 330 326 324 323 324 323 319 315 313 313 313 315 318 321 322 320 317 313 313 316 316 308 298 287 276 263 242 230
283 283 283 283 283 283 283 284 284 284 285 285 286 286 287 287 288 289 290 291 292 293 293 294 295 296 298 299 300 301 302 302 303 304 305 306 307 307 308 309 310 311 312 313 315 318 320 320 321 322 324 325 326 327 328 329 331 329 325 323 323 322 321 317 312 310 309 310 312 317 321 320 316 310 304 302 301 297 292 288 284 281 279 277 274
282 282 282 282 282 283 283 283 283 284 284 285 285 286 287 288 288 289 290 291 292 293 294 295 296 297 298 299 299 300 301 302 303 304 304 305 306 307 308 309 311 312 313 314 315 318 319 320 321 322 324 325 326 327 328 330 330 327 323 321 322 321 318 315 310 307 306 307 312 316 318 316 311 304 298 297 298 296 293 291 288 286 284 282 280
281 281 281 282 282 282 282 282 283 283 284 285 286 286 287 288 289 290 291 292 293 294 295 296 296 297 297 297 298 299 300 302 302 303 303 304 305 306 308 310 311 312 313 313 315 317 318 319 320 322 323 325 326 328 329 329 329 326 321 320 321 319 315 312 309 306 304 306 311 313 312 308 303 298 297 298 299 298 297 294 291 288 286 283 280
280 281 281 281 281 281 281 282 283 283 284 285 286 287 288 288 289 290 291 292 293 294 294 295 295 295 296 296 298 299 300 301 301 302 303 304 305 307 309 311 312 312 312 313 315 317 318 318 319 321 323 325 326 328 329 329 328 323 318 318 319 317 312 309 308 305 303 305 308 307 303 297 292 289 290 293 296 297 298 297 293 289 284 278 273
279 279 279 280 280 281 281 282 283 283 284 285 286 287 288 289 289 290 291 291 292 292 293 293 293 294 295 297 298 299 300 300 301 302 303 305 306 308 310 311 312 311 312 313 315 316 316 317 318 320 322 324 326 328 328 328 326 320 315 315 317 314 309 307 306 303 300 302 303 300 294 287 280 276 276 283 290 295 297 295 290 281 270 261 248
278 278 279 279 280 280 281 282 282 283 284 285 286 287 287 288 289 289 289 290 290 290 291 292 293 294 295 297 298 298 298 299 301 303 304 305 306 308 310 310 310 310 311 313 314 315 315 316 318 320 322 324 325 327 328 328 324 316 311 311 313 310 306 305 303 298 295 296 296 294 288 280 272 265 264 270 281 289 290 286 280 271 260 251 242
278 278 279 279 280 280 281 282 283 283 284 285 286 286 287 287 287 287 288 288 289 290 291 292 293 294 295 296 296 296 297 299 302 304 305 305 306 307 309 309 309 310 311 312 313 314 315 316 318 319 321 323 325 327 328 327 323 314 307 307 309 306 303 301 299 294 290 289 288 287 284 277 268 262 260 263 270 277 277 274 272 270 266 262 258
278 279 279 280 280 281 281 282 283 283 284 285 285 286 286 286 286 287 287 288 289 290 291 291 292 292 293 294 294 295 296 300 303 305 305 305 305 307 308 308 308 309 310 311 312 313 314 316 317 319 321 323 325 326 327 326 321 312 304 303 305 303 300 298 295 290 285 282 281 280 278 275 270 267 266 265 264 265 265 265 267 267 268 268 266
277 278 279 279 280 280 281 282 282 283 283 284 284 284 284 285 285 286 287 287 288 289 290 290 290 291 292 292 293 294 296 300 303 305 305 305 306 306 307 307 307 308 309 310 311 312 313 315 317 319 321 323 324 326 326 324 319 311 302 299 300 300 297 295 292 288 282 277 275 274 273 272 271 271 269 267 264 262 262 263 265 265 265 265 264
276 277 277 278 279 280 280 281 282 282 282 283 283 283 284 284 285 285 286 287 287 288 289 289 289 290 291 292 293 294 296 299 302 304 304 304 305 305 306 306 306 307 309 309 310 311 312 314 316 319 321 323 324 325 324 321 317 310 302 297 296 297 296 293 290 286 280 275 271 270 270 269 269 268 267 265 265 264 264 265 265 263 261 259 257
276 277 278 278 279 280 280 281 281 282 282 282 283 283 284 284 285 285 285 286 287 287 288 288 288 290 291 292 293 294 295 297 299 300 301 303 304 304 305 305 306 307 308 308 309 310 312 314 316 319 321 322 323 323 322 319 314 309 302 296 292 292 293 291 289 286 281 276 271 268 267 267 267 266 265 264 264 265 265 265 264 261 258 256 255
276 277 278 278 279 279 280 280 280 281 281 281 282 282 283 283 283 284 284 285 286 286 286 286 287 289 291 291 292 293 294 295 296 298 300 301 303 303 304 305 305 306 306 307 308 310 312 314 316 318 320 321 322 322 320 316 311 307 303 296 290 288 288 288 287 285 282 278 273 269 268 267 267 267 266 266 265 264 264 263 262 259 258 257 258
277 277 278 278 278 278 279 279 279 280 280 280 281 281 281 281 281 282 283 283 284 284 284 285 287 290 291 290 289 290 291 293 294 297 299 301 302 303 303 304 304 305 305 306 307 309 311 314 316 318 319 320 320 320 317 313 308 305 302 296 290 285 283 282 282 281 280 278 275 272 270 268 268 268 268 267 265 263 262 260 258 257 257 258 259
277 277 277 277 278 278 278 279 279 279 279 280 280 280 280 280 280 280 280 281 281 282 284 286 287 288 288 287 287 287 289 292 294 297 299 301 301 302 302 303 303 304 304 305 307 309 311 314 315 317 319 319 319 317 314 310 306 303 300 296 291 285 281 278 278 277 275 274 273 272 270 269 268 268 268 266 265 263 260 258 257 256 257 258 259
Height
5825 5825 5824 5823 5823 5822 5821 5820 5818 5817 5816 5815 5814 5813 5812 5810 5809 5807 5805 5804 5802 5800 5798 5796 5794 5792 5790 5788 5786 5784 5782 5779 5777 5775 5772 5770 5767 5763 5760 5756 5753 5749 5745 5741 5737 5734 5730 5725 5721 5717 5713 5709 5705 5700 5696 5691 5687 5684 5678 5674 5672 5665 5659 5657 5653 5656 5667 5668 5658 5655 5649 5640 5640 5637 5626 5621 5619 5613 5608 5604 5598 5593 5588 5583 5582
5820 5819 5819 5818 5817 5816 5815 5814 5813 5812 5811 5810 5809 5808 5806 5805 5803 5802 5800 5798 5797 5795 5793 5791 5789 5787 5785 5782 5780 5778 5776 5774 5771 5769 5766 5763 5760 5757 5754 5750 5746 5742 5738 5734 5730 5726 5722 5718 5713 5710 5706 5702 5697 5693 5689 5685 5680 5677 5672 5666 5663 5659 5650 5645 5643 5640 5646 5654 5651 5645 5640 5630 5625 5624 5615 5607 5605 5601 5598 5593 5586 5582 5577 5569 5566
5815 5814 5813 5813 5812 5811 5810 5809 5808 5807 5806 5805 5804 5802 5801 5800 5798 5796 5795 5793 5791 5789 5787 5785 5783 5781 5779 5776 5774 5772 5770 5768 5765 5762 5759 5756 5753 5750 5746 5743 5739 5735 5731 5726 5723 5719 5715 5711 5706 5702 5699 5695 5690 5686 5682 5678 5674 5669 5665 5659 5653 5650 5643 5634 5631 5627 5626 5634 5638 5634 5628 5622 5615 5610 5602 5593 5588 5584 5583 5581 5574 5569 5565 5557 5550
5809 5809 5808 5807 5806 5805 5804 5803 5802 5802 5801 5799 5798 5797 5795 5794 5792 5791 5789 5787 5785 5783 5781 5779 5777 5775 5772 5770 5768 5766 5763 5761 5758 5756 5753 5749 5746 5742 5739 5735 5731 5727 5724 5720 5716 5712 5707 5703 5698 5694 5691 5687 5683 5679 5674 5670 5666 5661 5656 5651 5645 5640 5635 5626 5619 5615 5611 5613 5620 5620 5614 5609 5604 5599 5590 5580 5575 5569 5564 5562 5559 5554 5551 5546 5537
5804 5803 5802 5801 5801 5800 5799 5798 5797 5796 5795 5794 5793 5791 5790 5788 5787 5785 5783 5781 5779 5777 5774 5772 5770 5768 5766 5763 5761 5759 5756 5754 5751 5749 5746 5742 5739 5735 5731 5728 5724 5720 5716 5712 5708 5704 5700 5695 5691 5686 5683 5680 5676 5671 5667 5662 5658 5653 5647 5641 5637 5630 5625 5619 5609 5603 5599 5596 5599 5603 5601 5595 5590 5588 5579 5565 5558 5555 5550 5546 5543 5537 5533 5530 5526
5798 5798 5797 5796 5795 5794 5794 5793 5791 5790 5789 5788 5787 5785 5784 5782 5781 5779 5777 5774 5772 5770 5768 5766 5763 5761 5759 5756 5754 5751 5749 5747 5744 5741 5738 5735 5731 5728 5724 5721 5717 5712 5708 5704 5700 5696 5692 5687 5683 5678 5674 5671 5668 5662 5658 5654 5649 5645 5638 5632 5627 5621 5615 5609 5601 5593 5587 5583 5582 5583 5584 5581 5575 5572 5568 5553 5540 5535 5530 5527 5528 5525 5518 5512 5509
5792 5792 5791 5790 5790 5789 5788 5787 5785 5784 5783 5782 5781 5779 5778 5776 5774 5772 5770 5768 5766 5763 5761 5759 5756 5754 5751 5749 5746 5744 5741 5739 5737 5734 5731 5728 5724 5720 5717 5713 5709 5705 5701 5696 5692 5687 5683 5678 5674 5670 5665 5661 5658 5653 5649 5645 5641 5636 5628 5621 5616 5611 5605 5598 5591 5582 5575 5570 5569 5566 5564 5563 5560 5554 5550 5541 5528 5519 5510 5502 5502 5506 5505 5499 5494
5787 5786 5786 5785 5784 5783 5782 5781 5780 5778 5777 5776 5774 5773 5771 5769 5767 5765 5763 5761 5759 5757 5754 5752 5749 5746 5744 5741 5738 5736 5733 5731 5729 5726 5723 5720 5717 5713 5709 5706 5702 5698 5693 5688 5684 5679 5675 5670 5665 5661 5657 5652 5647 5643 5638 5633 5630 5627 5620 5611 5604 5599 5594 5587 5580 5572 5563 5557 5555 5552 5546 5544 5542 5536 5530 5525 5514 5505 5498 5487 5479 5479 5481 5480 5481
5781 5780 5780 5779 5778 5777 5776 5775 5774 5772 5771 5769 5768 5766 5764 5762 5760 5758 5756 5754 5752 5749 5747 5744 5741 5739 5736 5733 5730 5728 5725 5723 5721 5718 5715 5712 5709 5705 5701 5698 5694 5690 5686 5681 5676 5671 5666 5662 5657 5652 5647 5643 5637 5632 5627 5622 5617 5614 5610 5602 5594 5587 5581 5575 5568 5559 5550 5543 5540 5536 5530 5526 5524 5518 5511 5508 5498 5487 5481 5474 5464 5459 5456 5454 5460
5775 5774 5774 5773 5772 5771 5770 5769 5767 5766 5764 5763 5761 5759 5757 5755 5753 5751 5749 5747 5744 5742 5739 5736 5733 5730 5727 5724 5722 5719 5717 5715 5712 5710 5707 5704 5701 5697 5693 5689 5685 5681 5678 5674 5669 5664 5659 5654 5649 5643 5638 5633 5628 5623 5618 5613 5607 5601 5597 5591 5583 5575 5567 5562 5555 5546 5536 5528 5524 5520 5513 5508 5507 5500 5491 5487 5481 5470 5462 5456 5446 5441 5437 5432 5435
5769 5768 5767 5767 5766 5765 5763 5762 5761 5759 5757 5755 5753 5751 5750 5748 5746 5744 5741 5739 5736 5734 5731 5728 5725 5721 5718 5715 5713 5711 5709 5706 5703 5700 5698 5695 5692 5689 5685 5681 5677 5672 5669 5665 5661 5656 5652 5647 5640 5634 5629 5624 5619 5614 5609 5604 5598 5592 5587 5581 5572 5563 5554 5546 5539 5532 5523 5515 5510 5505 5498 5490 5487 5482 5474 5467 5460 5452 5444 5437 5428 5421 5418 5412 5411
5763 5762 5761 5760 5759 5758 5757 5755 5754 5752 5750 5748 5746 5744 5743 5741 5738 5736 5733 5731 5728 5725 5723 5720 5716 5713 5710 5706 5704 5702 5700 5697 5694 5691 5689 5686 5683 5680 5677 5672 5669 5664 5659 5656 5651 5647 5643 5639 5633 5625 5619 5614 5609 5605 5600 5595 5589 5583 5578 5572 5564 5555 5544 5533 5523 5515 5508 5501 5495 5492 5486 5476 5469 5466 5459 5447 5439 5433 5425 5418 5411 5403 5399 5394 5391
5756 5756 5755 5754 5753 5751 5750 5748 5746 5744 5743 5741 5739 5737 5735 5733 5730 5728 5725 5722 5720 5717 5714 5711 5708 5704 5701 5698 5695 5693 5691 5688 5685 5682 5680 5678 5674 5671 5668 5664 5660 5655 5651 5646 5641 5636 5632 5628 5625 5618 5610 5602 5597 5593 5589 5585 5580 5575 5568 5562 5555 5546 5537 5527 5516 5505 5497 5488 5480 5476 5472 5462 5452 5448 5442 5430 5419 5412 5404 5398 5392 5386 5381 5377 5374
5750 5749 5748 5747 5746 5744 5742 5741 5739 5737 5736 5734 5732 5729 5727 5725 5722 5720 5717 5714 5711 5709 5705 5702 5699 5696 5693 5689 5686 5684 5682 5679 5677 5674 5671 5669 5666 5662 5659 5655 5651 5646 5641 5636 5631 5626 5621 5617 5614 5610 5603 5593 5585 5579 5575 5572 5569 5564 5559 5552 5545 5537 5529 5520 5509 5500 5490 5478 5468 5460 5455 5448 5437 5429 5423 5413 5402 5393 5385 5377 5372 5367 5362 5359 5358
5743 5742 5741 5740 5738 5737 5735 5733 5732 5730 5728 5726 5724 5722 5719 5717 5715 5712 5709 5706 5703 5700 5697 5694 5691 5688 5684 5681 5678 5675 5673 5671 5668 5666 5663 5660 5657 5654 5650 5646 5642 5637 5631 5626 5620 5615 5610 5606 5602 5598 5592 5584 5575 5566 5560 5556 5553 5550 5545 5540 5534 5528 5520 5511 5500 5491 5481 5470 5459 5448 5440 5433 5423 5413 5405 5396 5385 5376 5367 5359 5353 5347 5341 5339 5342
5736 5735 5734 5732 5731 5729 5727 5726 5724 5722 5720 5718 5716 5714 5711 5709 5707 5704 5701 5698 5695 5692 5689 5685 5682 5679 5676 5673 5670 5666 5664 5663 5660 5657 5654 5651 5648 5644 5641 5637 5634 5629 5623 5617 5611 5605 5599 5594 5590 5586 5580 5573 5565 5556 5547 5541 5537 5533 5528 5525 5520 5515 5510 5502 5493 5484 5473 5462 5452 5440 5430 5420 5409 5399 5390 5379 5368 5358 5349 5343 5338 5331 5323 5320 5323
5729 5727 5726 5724 5723 5721 5719 5718 5716 5714 5712 5710 5707 5705 5703 5701 5699 5696 5693 5690 5687 5683 5680 5677 5674 5671 5668 5665 5662 5658 5655 5653 5651 5648 5645 5642 5638 5635 5632 5629 5625 5621 5616 5609 5603 5596 5589 5582 5577 5573 5569 5562 5555 5547 5538 5529 5523 5518 5512 5507 5503 5499 5494 5489 5483 5476 5465 5454 5444 5432 5420 5410 5398 5387 5378 5367 5356 5344 5333 5327 5324 5318 5310 5307 5308
5721 5720 5718 5716 5715 5713 5711 5709 5708 5706 5703 5701 5699 5697 5695 5693 5690 5688 5686 5682 5679 5675 5672 5669 5666 5663 5660 5656 5654 5650 5647 5643 5641 5638 5635 5632 5629 5626 5623 5620 5616 5612 5607 5602 5595 5587 5579 5572 5566 5560 5556 5551 5545 5537 5528 5518 5511 5505 5497 5490 5485 5481 5475 5469 5465 5460 5453 5445 5436 5425 5412 5400 5387 5375 5365 5356 5346 5336 5325 5317 5312 5306 5300 5298 5296
5713 5711 5710 5708 5706 5705 5703 5701 5699 5697 5695 5693 5691 5689 5687 5685 5682 5680 5677 5674 5671 5667 5664 5660 5658 5655 5651 5648 5645 5642 5638 5635 5632 5629 5625 5622 5619 5616 5613 5610 5606 5602 5597 5592 5587 5580 5572 5564 5556 5550 5544 5539 5533 5527 5519 5508 5499 5492 5484 5475 5469 5464 5458 5451 5445 5438 5433 5428 5422 5413 5402 5390 5375 5362 5352 5343 5335 5326 5317 5309 5303 5297 5291 5289 5288
5705 5703 5701 5700 5698 5696 5695 5692 5691 5689 5687 5685 5683 5681 5679 5677 5674 5671 5669 5666 5663 5660 5656 5652 5649 5646 5642 5639 5636 5633 5630 5627 5623 5619 5616 5612 5609 5606 5602 5598 5595 5591 5587 5581 5577 5572 5566 5558 5549 5540 5533 5528 5521 5515 5508 5499 5489 5480 5472 5463 5455 5447 5440 5434 5427 5419 5411 5406 5401 5393 5384 5372 5361 5350 5341 5332 5324 5316 5309 5302 5296 5290 5284 5282 5282
5696 5694 5692 5691 5689 5688 5686 5684 5682 5681 5679 5677 5675 5673 5671 5669 5666 5663 5661 5658 5655 5651 5648 5644 5640 5637 5634 5631 5627 5624 5621 5618 5615 5610 5606 5602 5598 5595 5591 5586 5583 5579 5576 5570 5565 5560 5556 5550 5542 5533 5525 5518 5511 5504 5497 5490 5480 5471 5462 5452 5443 5433 5424 5417 5410 5402 5394 5387 5380 5373 5365 5355 5347 5339 5331 5323 5315 5308 5301 5295 5289 5284 5279 5276 5275
5687 5685 5684 5683 5681 5680 5678 5676 5675 5673 5671 5669 5667 5665 5663 5660 5658 5655 5652 5649 5647 5644 5640 5637 5633 5629 5626 5622 5619 5616 5612 5609 5606 5602 5597 5593 5588 5584 5580 5575 5571 5567 5563 5559 5554 5549 5543 5537 5531 5524 5516 5509 5502 5495 5487 5479 5471 5462 5453 5443 5434 5424 5414 5405 5396 5387 5379 5371 5363 5357 5350 5342 5334 5328 5321 5314 5307 5300 5294 5289 5284 5279 5275 5272 5269
5679 5677 5676 5675 5673 5672 5670 5668 5666 5664 5662 5660 5658 5656 5654 5651 5649 5646 5644 5641 5639 5636 5633 5630 5626 5622 5618 5614 5611 5607 5603 5599 5596 5592 5588 5583 5579 5574 5569 5565 5560 5555 5551 5547 5542 5537 5532 5525 5519 5513 5506 5500 5493 5486 5477 5468 5459 5452 5444 5434 5425 5415 5405 5396 5387 5377 5368 5360 5351 5344 5338 5331 5324 5317 5311 5305 5299 5293 5287 5283 5278 5274 5271 5268 5266
5671 5669 5668 5667 5665 5663 5662 5659 5657 5655 5653 5651 5649 5647 5645 5643 5640 5638 5636 5633 5631 5629 5626 5623 5619 5615 5611 5607 5603 5598 5593 5589 5586 5582 5578 5573 5569 5564 5559 5554 5549 5544 5539 5535 5530 5525 5519 5513 5507 5501 5495 5489 5483 5476 5468 5458 5449 5441 5433 5424 5415 5405 5395 5386 5377 5367 5358 5350 5342 5335 5329 5323 5315 5309 5303 5297 5292 5287 5282 5277 5273 5270 5267 5265 5264
5663 5661 5660 5658 5656 5655 5653 5651 5649 5647 5644 5642 5640 5638 5636 5635 5632 5630 5628 5625 5623 5621 5618 5615 5612 5608 5604 5601 5596 5590 5585 5581 5576 5572 5568 5563 5559 5554 5549 5544 5539 5534 5529 5524 5519 5514 5508 5501 5495 5489 5484 5478 5472 5466 5458 5450 5441 5431 5423 5414 5405 5396 5386 5375 5366 5357 5349 5342 5335 5328 5322 5316 5309 5302 5296 5291 5286 5282 5277 5273 5269 5266 5264 5262 5261
5654 5653 5651 5650 5648 5646 5644 5642 5640 5638 5636 5634 5632 5630 5629 5627 5624 5622 5619 5617 5615 5612 5609 5606 5603 5600 5596 5593 5588 5583 5578 5573 5568 5563 5559 5554 5550 5545 5540 5535 5529 5524 5520 5515 5510 5504 5498 5491 5484 5478 5472 5467 5460 5453 5446 5439 5431 5422 5414 5405 5396 5386 5376 5366 5356 5347 5340 5334 5329 5323 5316 5310 5304 5298 5292 5287 5282 5278 5274 5270 5266 5263 5261 5260 5260
5646 5644 5643 5641 5639 5638 5636 5634 5632 5629 5628 5626 5624 5622 5620 5618 5616 5613 5611 5608 5606 5603 5600 5597 5594 5591 5587 5584 5579 5574 5569 5565 5560 5555 5550 5546 5541 5536 5531 5526 5521 5515 5510 5506 5501 5495 5489 5482 5475 5468 5462 5456 5449 5442 5435 5428 5420 5412 5405 5397 5388 5378 5367 5357 5348 5339 5331 5326 5321 5317 5311 5305 5300 5295 5289 5284 5279 5275 5271 5267 5264 5261 5259 5259 5259
5637 5636 5634 5632 5631 5629 5627 5625 5623 5621 5619 5617 5615 5613 5611 5609 5606 5604 5602 5599 5596 5593 5590 5587 5584 5581 5578 5574 5570 5565 5560 5555 5550 5546 5542 5537 5533 5528 5523 5517 5512 5507 5501 5496 5492 5486 5480 5474 5467 5461 5455 5449 5442 5435 5429 5421 5413 5405 5396 5388 5380 5370 5361 5352 5344 5336 5328 5321 5316 5312 5307 5303 5298 5293 5288 5282 5277 5272 5269 5266 5263 5260 5258 5258 5259
5629 5627 5626 5624 5622 5620 5618 5616 5615 5613 5611 5609 5606 5604 5602 5600 5597 5595 5592 5589 5586 5583 5580 5577 5574 5571 5568 5564 5560 5556 5551 5546 5541 5537 5532 5527 5523 5519 5513 5508 5503 5498 5491 5485 5480 5476 5471 5465 5458 5453 5447 5441 5435 5429 5422 5415 5409 5401 5391 5381 5372 5364 5355 5346 5340 5334 5327 5320 5314 5309 5305 5301 5296 5291 5286 5281 5275 5271 5268 5265 5262 5260 5259 5258 5259
5620 5618 5617 5615 5613 5612 5610 5608 5606 5604 5602 5600 5598 5595 5593 5591 5588 5585 5581 5578 5575 5572 5569 5567 5564 5561 5557 5553 5549 5546 5542 5537 5532 5527 5522 5517 5512 5507 5502 5497 5492 5488 5482 5476 5470 5465 5460 5455 5449 5443 5437 5431 5424 5418 5412 5406 5399 5393 5386 5377 5366 5358 5350 5342 5335 5329 5323 5317 5311 5306 5303 5299 5294 5289 5285 5280 5276 5272 5269 5266 5263 5261 5260 5259 5259
5611 5609 5608 5606 5605 5603 5601 5600 5598 5596 5594 5591 5589 5586 5583 5581 5578 5575 5571 5568 5565 5562 5559 5557 5554 5552 5547 5542 5538 5535 5531 5527 5522 5517 5512 5507 5501 5496 5491 5485 5481 5476 5472 5467 5462 5456 5451 5446 5441 5435 5428 5422 5415 5408 5401 5395 5388 5381 5375 5369 5360 5351 5344 5337 5330 5325 5320 5315 5310 5305 5301 5297 5292 5287 5283 5280 5276 5273 5270 5267 5264 5262 5261 5260 5260
5602 5601 5599 5598 5596 5595 5593 5591 5589 5587 5585 5582 5580 5577 5574 5570 5567 5564 5561 5558 5555 5552 5549 5547 5544 5541 5537 5532 5528 5525 5521 5516 5512 5507 5503 5497 5492 5486 5480 5475 5470 5465 5461 5456 5451 5447 5442 5437 5431 5426 5420 5415 5408 5401 5393 5386 5379 5371 5364 5359 5353 5345 5338 5331 5326 5321 5316 5312 5308 5304 5300 5296 5292 5287 5283 5280 5276 5273 5270 5268 5265 5264 5262 5261 5261
5594 5593 5591 5590 5588 5586 5584 5582 5580 5577 5575 5573 5570 5567 5564 5561 5558 5554 5551 5548 5545 5542 5539 5537 5534 5530 5526 5522 5518 5515 5511 5507 5502 5498 5493 5488 5483 5478 5472 5466 5461 5456 5451 5447 5442 5437 5433 5428 5422 5417 5412 5406 5401 5395 5387 5378 5371 5364 5356 5349 5344 5339 5332 5326 5321 5317 5313 5309 5306 5302 5299 5295 5292 5288 5284 5280 5277 5274 5271 5269 5267 5265 5264 5263 5262
5586 5584 5582 5581 5579 5576 5575 5573 5570 5568 5565 5562 5559 5557 5554 5551 5548 5544 5541 5538 5534 5532 5530 5528 5524 5520 5515 5511 5508 5504 5500 5496 5492 5487 5483 5478 5474 5469 5464 5459 5454 5448 5444 5439 5434 5429 5425 5421 5415 5410 5405 5399 5393 5387 5380 5372 5365 5358 5350 5343 5338 5333 5327 5322 5317 5313 5310 5307 5304 5300 5297 5294 5291 5288 5285 5281 5278 5275 5273 5271 5269 5268 5267 5266 5265
5577 5575 5573 5571 5569 5567 5565 5562 5560 5558 5555 5552 5549 5546 5543 5540 5537 5534 5531 5527 5524 5521 5520 5517 5514 5509 5505 5501 5497 5492 5488 5484 5480 5476 5472 5468 5465 5460 5456 5452 5447 5442 5437 5433 5428 5423 5418 5414 5409 5403 5398 5392 5385 5379 5372 5366 5358 5351 5344 5338 5333 5328 5323 5318 5314 5311 5308 5305 5302 5299 5296 5293 5290 5288 5285 5282 5279 5277 5275 5273 5272 5271 5270 5269 5268
5567 5565 5563 5561 5559 5557 5555 5552 5550 5548 5545 5542 5539 5536 5533 5531 5527 5524 5521 5518 5514 5512 5509 5506 5503 5499 5495 5490 5486 5481 5477 5473 5469 5466 5462 5458 5455 5451 5448 5444 5440 5436 5431 5426 5422 5417 5411 5406 5402 5397 5391 5385 5379 5372 5365 5358 5352 5345 5338 5332 5328 5324 5319 5315 5312 5308 5306 5303 5300 5297 5294 5292 5289 5286 5284 5281 5279 5277 5276 5275 5274 5272 5271 5270 5270
5556 5555 5553 5551 5549 5547 5544 5542 5540 5537 5535 5532 5529 5527 5524 5521 5518 5515 5512 5508 5505 5503 5500 5496 5492 5488 5484 5480 5475 5471 5467 5463 5459 5456 5452 5449 5445 5442 5439 5435 5431 5428 5423 5419 5415 5410 5405 5399 5394 5389 5384 5379 5373 5366 5359 5352 5345 5339 5333 5327 5323 5318 5315 5312 5309 5306 5303 5301 5298 5296 5293 5290 5288 5285 5283 5281 5279 5278 5277 5276 5274 5274 5273 5272 5271
5546 5544 5543 5540 5538 5536 5534 5532 5529 5527 5524 5522 5519 5517 5515 5511 5508 5505 5502 5499 5496 5493 5490 5486 5482 5478 5474 5470 5465 5461 5457 5454 5450 5446 5443 5440 5437 5434 5430 5427 5424 5420 5416 5412 5407 5403 5398 5393 5388 5382 5377 5372 5366 5360 5354 5347 5340 5334 5328 5324 5319 5314 5311 5308 5306 5304 5301 5299 5296 5294 5291 5289 5287 5285 5282 5280 5279 5278 5277 5276 5275 5274 5273 5273 5272
5536 5534 5532 5530 5528 5526 5524 5521 5519 5516 5514 5512 5509 5507 5504 5501 5498 5495 5491 5488 5485 5482 5478 5475 5471 5468 5464 5460 5456 5453 5449 5445 5442 5439 5435 5432 5429 5426 5423 5420 5416 5413 5409 5404 5400 5396 5391 5386 5381 5376 5371 5366 5360 5353 5347 5341 5335 5329 5324 5320 5316 5311 5308 5305 5303 5301 5299 5296 5294 5292 5290 5288 5286 5284 5282 5280 5279 5278 5277 5276 5275 5274 5273 5273 5272
5525 5523 5521 5519 5517 5515 5513 5511 5509 5507 5504 5502 5499 5497 5494 5491 5487 5484 5481 5477 5474 5470 5467 5464 5460 5457 5455 5451 5448 5444 5441 5437 5434 5431 5428 5425 5422 5419 5416 5412 5409 5406 5402 5398 5394 5389 5384 5379 5374 5370 5365 5360 5354 5347 5341 5335 5329 5324 5320 5316 5313 5308 5305 5303 5301 5298 5296 5294 5292 5290 5288 5286 5284 5283 5281 5280 5279 5277 5276 5276 5275 5274 5273 5272 5271
5514 5512 5511 5509 5507 5505 5503 5501 5499 5497 5494 5492 5489 5486 5483 5480 5477 5473 5470 5467 5464 5460 5457 5454 5451 5448 5444 5441 5438 5435 5432 5429 5426 5423 5420 5417 5414 5411 5408 5405 5401 5398 5395 5391 5387 5382 5377 5372 5367 5363 5359 5354 5348 5342 5335 5329 5323 5319 5315 5312 5309 5305 5302 5300 5298 5296 5294 5292 5290 5288 5286 5285 5283 5281 5280 5279 5278 5277 5276 5275 5274 5273 5272 5271 5271
5504 5502 5500 5498 5497 5495 5493 5491 5488 5486 5484 5481 5479 5476 5473 5470 5467 5463 5460 5457 5454 5451 5448 5444 5441 5438 5435 5432 5429 5426 5424 5421 5418 5415 5412 5409 5406 5403 5399 5396 5393 5390 5387 5384 5380 5376 5371 5366 5361 5356 5352 5348 5343 5337 5331 5324 5318 5314 5311 5309 5306 5302 5299 5297 5295 5293 5291 5289 5288 5286 5285 5283 5281 5280 5279 5278 5277 5276 5275 5274 5273 5272 5271 5271 5270
5493 5491 5490 5488 5486 5484 5482 5480 5478 5475 5473 5470 5468 5465 5462 5459 5456 5453 5450 5447 5445 5442 5438 5435 5432 5429 5426 5423 5420 5418 5415 5412 5410 5407 5404 5401 5398 5395 5392 5388 5385 5382 5379 5376 5372 5368 5364 5359 5354 5349 5345 5341 5336 5332 5327 5320 5314 5309 5306 5305 5302 5299 5296 5294 5292 5290 5288 5287 5285 5284 5283 5281 5279 5278 5277 5276 5276 5275 5274 5273 5272 5272 5271 5270 5270
5482 5480 5479 5477 5475 5473 5471 5469 5466 5464 5462 5459 5456 5454 5452 5449 5445 5442 5439 5437 5434 5431 5428 5425 5422 5420 5417 5415 5412 5409 5407 5404 5402 5399 5396 5393 5390 5387 5384 5381 5378 5374 5371 5367 5364 5360 5356 5352 5347 5342 5337 5333 5329 5325 5320 5315 5310 5306 5303 5300 5298 5296 5293 5291 5289 5287 5285 5284 5283 5282 5280 5279 5277 5276 5275 5274 5274 5273 5272 5272 5271 5270 5270 5269 5269
5470 5468 5467 5465 5463 5461 5459 5457 5455 5453 5450 5448 5445 5442 5440 5437 5434 5431 5428 5426 5424 5421 5419 5416 5413 5411 5409 5406 5403 5401 5399 5396 5394 5391 5388 5386 5383 5380 5377 5373 5370 5367 5364 5360 5356 5352 5349 5345 5341 5336 5331 5326 5322 5317 5313 5309 5305 5301 5299 5296 5294 5292 5290 5288 5286 5284 5282 5281 5280 5279 5277 5276 5275 5274 5273 5272 5272 5271 5270 5270 5269 5269 5268 5268 5267
5459 5457 5455 5453 5452 5450 5448 5445 5443 5441 5439 5437 5434 5431 5428 5426 5423 5420 5418 5415 5413 5411 5409 5407 5404 5402 5400 5398 5395 5393 5391 5389 5386 5384 5381 5378 5375 5372 5369 5366 5363 5359 5356 5353 5349 5345 5342 5338 5334 5330 5325 5320 5315 5311 5306 5302 5299 5296 5294 5292 5290 5288 5286 5284 5282 5281 5279 5278 5277 5276 5275 5273 5272 5271 5271 5270 5269 5268 5268 5267 5267 5266 5266 5265 5265
5448 5446 5445 5443 5441 5439 5437 5435 5432 5430 5428 5425 5422 5419 5417 5415 5412 5409 5407 5405 5403 5401 5399 5397 5395 5393 5391 5389 5387 5385 5383 5381 5378 5376 5373 5371 5368 5365 5362 5358 5355 5351 5348 5345 5342 5338 5335 5331 5327 5323 5318 5314 5309 5304 5300 5296 5293 5291 5288 5287 5285 5283 5281 5280 5278 5277 5275 5274 5273 5272 5271 5270 5269 5269 5268 5267 5266 5266 5265 5264 5264 5263 5263 5263 5262
5437 5435 5434 5432 5429 5427 5425 5423 5420 5418 5416 5413 5410 5408 5406 5403 5401 5398 5396 5394 5392 5391 5389 5387 5386 5385 5383 5381 5379 5377 5375 5373 5370 5368 5365 5363 5360 5357 5354 5351 5347 5344 5341 5337 5334 5331 5327 5323 5320 5316 5311 5307 5303 5298 5294 5290 5287 5285 5283 5281 5280 5278 5277 5275 5274 5272 5271 5270 5269 5268 5267 5267 5266 5265 5264 5264 5263 5262 5262 5261 5261 5260 5260 5260 5259
5425 5424 5422 5420 5417 5415 5413 5411 5408 5406 5404 5401 5399 5397 5395 5392 5390 5388 5386 5384 5383 5381 5380 5378 5377 5376 5374 5372 5370 5368 5366 5364 5362 5360 5357 5355 5352 5349 5346 5343 5340 5337 5333 5330 5327 5323 5320 5316 5312 5309 5305 5301 5297 5293 5289 5285 5281 5279 5278 5276 5274 5273 5271 5270 5269 5268 5266 5265 5265 5264 5263 5262 5262 5261 5260 5260 5259 5259 5258 5258 5257 5257 5257 5256 5256
5412 5411 5409 5407 5405 5403 5401 5398 5397 5395 5392 5390 5388 5386 5384 5382 5380 5378 5376 5375 5373 5372 5371 5370 5368 5367 5365 5364 5362 5360 5359 5357 5354 5352 5349 5347 5344 5341 5338 5335 5332 5329 5326 5322 5319 5316 5312 5309 5305 5302 5298 5294 5290 5286 5283 5279 5276 5274 5272 5270 5269 5267 5266 5265 5264 5263 5262 5261 5260 5259 5258 5258 5257 5257 5256 5256 5255 5255 5254 5254 5254 5253 5253 5253 5253
5399 5398 5396 5394 5392 5390 5388 5386 5385 5382 5380 5379 5377 5375 5373 5372 5370 5368 5367 5366 5365 5363 5363 5361 5360 5358 5357 5356 5354 5352 5350 5348 5346 5344 5341 5339 5336 5333 5330 5327 5324 5321 5318 5315 5312 5308 5305 5302 5298 5294 5291 5287 5283 5279 5276 5273 5271 5268 5266 5265 5263 5262 5261 5260 5259 5258 5257 5256 5255 5254 5254 5253 5253 5252 5252 5251 5251 5251 5250 5250 5250 5249 5249 5249 5248